Theta_e
294 293 293 292 292 291 291 292 292 291 291 290 290 290 290 290 290 291 291 291 292 292
293 292 291 291 291 291 291 290 290 289 289 289 289 288 288 289 289 290 290 289 289 291
292 291 291 291 290 290 290 290 289 289 289 289 289 289 288 288 288 288 288 288 288 289
291 290 290 290 290 289 289 289 288 289 288 288 287 288 287 288 287 286 286 287 287 287
290 290 289 289 289 289 288 289 289 288 287 287 287 287 286 285 285 285 285 286 286 286
289 289 288 288 288 288 288 288 289 288 287 287 287 285 285 285 285 285 285 285 285 286
288 288 288 288 288 288 289 288 288 288 287 287 286 285 285 285 285 285 284 285 285 286
287 287 287 287 288 288 288 288 288 287 287 286 285 284 284 285 284 282 282 283 284 285
287 286 286 287 287 287 287 287 287 286 285 285 284 285 286 285 282 281 280 280 281 282
286 285 285 286 286 286 286 286 284 284 284 284 284 285 286 285 282 281 280 280 280 280
284 284 285 284 285 285 285 284 284 283 283 283 283 284 286 284 282 281 281 284 282 281
283 283 284 283 284 285 284 284 283 284 283 282 282 284 285 283 282 280 280 284 285 285
283 284 284 284 283 284 284 284 284 283 284 283 282 284 285 283 281 279 279 281 285 285
283 284 285 284 283 283 283 283 282 283 284 284 283 284 285 284 281 280 278 278 280 284
Wind_Speed
7 5 7 9 9 9 10 10 13 13 14 16 16 16 15 12 13 16 15 19 17 13
6 7 8 11 10 9 11 10 13 15 15 16 16 17 17 13 16 16 16 17 17 16
6 7 8 9 11 12 12 13 14 15 15 16 17 18 18 16 17 18 15 14 18 17
5 6 8 8 10 11 13 14 14 15 16 17 19 18 18 19 20 20 20 20 20 20
5 6 7 8 10 11 12 13 14 15 16 18 19 18 19 19 20 21 20 20 21 20
4 5 7 8 10 11 12 12 13 14 16 18 18 18 17 19 20 21 22 22 21 19
4 5 6 8 9 10 11 12 13 14 16 17 18 17 16 19 20 20 19 19 18 18
3 5 5 8 9 10 10 11 12 14 15 15 14 11 19 17 20 19 18 18 16 15
3 4 5 7 9 10 10 11 12 14 14 15 12 24 30 25 17 17 17 15 14 15
3 4 6 7 9 9 10 11 12 12 12 14 15 27 31 30 15 16 17 18 14 11
4 4 5 6 8 9 8 8 10 11 13 13 12 27 31 30 18 17 21 15 10 10
5 5 5 5 7 7 8 7 9 10 12 13 13 25 29 24 16 18 21 18 11 5
6 5 5 6 7 6 6 7 8 10 10 11 12 21 27 23 12 16 15 19 13 13
7 6 5 6 7 7 6 6 7 10 10 10 11 14 25 25 12 11 12 14 15 14
Wind_Direction
310 311 309 309 309 304 306 312 316 312 311 300 299 297 292 284 280 278 278 273 262 256
311 316 311 309 306 305 309 313 311 308 302 300 297 292 289 280 277 274 270 267 264 266
313 314 310 308 305 310 311 311 307 304 302 301 298 293 290 282 277 276 273 269 267 262
304 305 303 302 309 311 311 307 306 306 305 304 297 296 287 283 283 278 275 270 266 263
296 305 306 310 311 310 303 304 305 306 304 301 300 297 293 295 291 285 282 279 270 262
298 306 308 308 308 307 301 306 307 309 308 306 305 299 295 296 291 288 285 279 272 264
295 302 304 305 302 303 304 308 312 314 312 312 308 303 306 303 304 300 295 289 280 268
284 297 301 301 304 302 306 308 314 314 315 310 311 317 315 320 317 309 301 296 289 276
264 293 303 297 302 302 309 318 319 316 315 318 318 323 327 334 324 311 302 297 288 283
227 282 292 301 304 304 311 318 314 312 312 317 316 333 343 340 327 318 307 294 282 278
213 249 277 295 294 297 304 317 313 315 318 321 321 337 351 348 336 333 332 326 275 252
206 240 265 286 296 298 314 333 320 317 314 323 329 344 358 358 348 351 354 353 26 49
205 228 261 278 290 295 318 318 313 314 315 323 337 350 7 12 355 359 2 8 18 41
218 211 238 278 284 293 316 321 322 321 321 332 347 353 15 21 11 9 12 17 16 26